SEJ7T VOHS-VABB

Flight info

Callsign SEJ7T
Flight time 1h 0m
Altitude 34000
Route TAMIV5 APUSU W18 OPAKA EMRAK2A
Aircraft B738/M-SDE2E3FGHIRWXY/LB1

Departure

Time 2026-04-25 09:29
Airport Rajiv Gandhi International Airport (VOHS)

Arrival

Time 2026-04-25 10:29
Airport Chhatrapati Shivaji Maharaj International Airport (VABB)
Time Latitude Longitude Altitude Speed Heading
2026-04-25 07:46 17.23417 78.43163 1979 ft 0 kts 360°
2026-04-25 09:07 17.23413 78.43163 1979 ft 2 kts
2026-04-25 09:07 17.23400 78.43162 1979 ft 0 kts
2026-04-25 09:07 17.23392 78.43161 1982 ft 2 kts 355°
2026-04-25 09:07 17.23376 78.43166 1979 ft 2 kts 321°
2026-04-25 09:08 17.23366 78.43179 1981 ft 2 kts 286°
2026-04-25 09:08 17.23365 78.43196 1980 ft 2 kts 274°
2026-04-25 09:08 17.23364 78.43210 1981 ft 0 kts 269°
2026-04-25 09:13 17.23364 78.43209 1981 ft 0 kts 269°
2026-04-25 09:13 17.23362 78.43189 1981 ft 5 kts 261°
2026-04-25 09:13 17.23340 78.43164 1981 ft 5 kts 200°
2026-04-25 09:13 17.23310 78.43162 1980 ft 0 kts 180°
2026-04-25 09:16 17.23279 78.43161 1981 ft 9 kts 180°
2026-04-25 09:16 17.23219 78.43161 1980 ft 9 kts 179°
2026-04-25 09:16 17.23193 78.43161 1979 ft 0 kts 178°
2026-04-25 09:18 17.23186 78.43161 1978 ft 0 kts 178°
2026-04-25 09:20 17.23143 78.43163 1981 ft 9 kts 178°
2026-04-25 09:20 17.23091 78.43194 1979 ft 9 kts 121°
2026-04-25 09:20 17.23086 78.43260 1980 ft 9 kts 86°
2026-04-25 09:21 17.23087 78.43327 1978 ft 10 kts 89°
2026-04-25 09:21 17.23089 78.43433 1978 ft 19 kts 89°
2026-04-25 09:21 17.23092 78.43575 1979 ft 22 kts 89°
2026-04-25 09:21 17.23094 78.43734 1979 ft 22 kts 89°
2026-04-25 09:22 17.23095 78.43890 1979 ft 21 kts 89°
2026-04-25 09:22 17.23097 78.44040 1980 ft 20 kts 89°
2026-04-25 09:22 17.23098 78.44186 1982 ft 20 kts 89°
2026-04-25 09:22 17.23101 78.44325 1983 ft 19 kts 89°
2026-04-25 09:23 17.23102 78.44462 1980 ft 18 kts 89°
2026-04-25 09:23 17.23104 78.44594 1980 ft 18 kts 89°
2026-04-25 09:23 17.23107 78.44748 1979 ft 23 kts 89°
2026-04-25 09:23 17.23106 78.44889 1978 ft 15 kts 103°
2026-04-25 09:24 17.23058 78.44926 1980 ft 7 kts 179°
2026-04-25 09:24 17.23043 78.44926 1981 ft 0 kts 179°
2026-04-25 09:26 17.23033 78.44927 1981 ft 8 kts 179°
2026-04-25 09:27 17.22955 78.44923 1980 ft 14 kts 197°
2026-04-25 09:27 17.22904 78.44845 1980 ft 9 kts 264°
2026-04-25 09:27 17.22904 78.44843 1980 ft 0 kts 264°
2026-04-25 09:27 17.22904 78.44842 1980 ft 1 kts 266°
2026-04-25 09:28 17.22904 78.44837 1981 ft 0 kts 269°
2026-04-25 09:28 17.22903 78.44744 1980 ft 48 kts 269°
2026-04-25 09:28 17.22899 78.44375 1980 ft 104 kts 269°
2026-04-25 09:29 17.22887 78.43345 1986 ft 176 kts 270°
2026-04-25 09:29 17.22877 78.41959 2625 ft 199 kts 270°
2026-04-25 09:29 17.22856 78.39976 3903 ft 206 kts 269°
2026-04-25 09:29 17.22841 78.38926 4434 ft 220 kts 269°
2026-04-25 09:30 17.22811 78.37229 4753 ft 252 kts 269°
2026-04-25 09:30 17.22780 78.35344 5366 ft 265 kts 269°
2026-04-25 09:30 17.22763 78.32660 5935 ft 293 kts 274°
2026-04-25 09:30 17.23008 78.31191 5996 ft 315 kts 285°
2026-04-25 09:31 17.23651 78.28999 6879 ft 318 kts 288°
2026-04-25 09:31 17.24330 78.26791 7796 ft 325 kts 288°
2026-04-25 09:31 17.25021 78.24532 8757 ft 319 kts 288°
2026-04-25 09:31 17.25671 78.22378 9703 ft 303 kts 288°
2026-04-25 09:32 17.26295 78.20288 10476 ft 303 kts 288°
2026-04-25 09:32 17.26919 78.18178 10818 ft 303 kts 288°
2026-04-25 09:32 17.27544 78.16054 10920 ft 307 kts 288°
2026-04-25 09:32 17.28172 78.13908 10931 ft 308 kts 288°
2026-04-25 09:33 17.28798 78.11762 10927 ft 308 kts 288°
2026-04-25 09:33 17.29424 78.09615 10938 ft 309 kts 288°
2026-04-25 09:33 17.30055 78.07486 10938 ft 309 kts 289°
2026-04-25 09:33 17.30417 78.05275 10922 ft 310 kts 268°
2026-04-25 09:34 17.30160 78.03041 10924 ft 310 kts 261°
2026-04-25 09:34 17.29788 78.00816 10926 ft 310 kts 260°
2026-04-25 09:34 17.29718 77.98580 10917 ft 309 kts 282°
2026-04-25 09:34 17.30526 77.96534 11117 ft 304 kts 304°
2026-04-25 09:35 17.31767 77.94739 11552 ft 304 kts 308°
2026-04-25 09:35 17.33076 77.92974 12041 ft 309 kts 309°
2026-04-25 09:35 17.34427 77.91178 12454 ft 323 kts 309°
2026-04-25 09:35 17.35839 77.89228 12602 ft 348 kts 301°
2026-04-25 09:36 17.36756 77.86850 12842 ft 353 kts 285°
2026-04-25 09:36 17.37362 77.84374 12913 ft 350 kts 284°
2026-04-25 09:36 17.37933 77.81928 12918 ft 350 kts 284°
2026-04-25 09:36 17.38534 77.79452 12919 ft 350 kts 285°
2026-04-25 09:37 17.39165 77.76979 12925 ft 351 kts 285°
2026-04-25 09:37 17.39818 77.74513 12969 ft 349 kts 286°
2026-04-25 09:37 17.40475 77.72080 13506 ft 348 kts 286°
2026-04-25 09:37 17.41145 77.69617 13993 ft 354 kts 286°
2026-04-25 09:38 17.41819 77.67151 14440 ft 358 kts 286°
2026-04-25 09:38 17.42506 77.64638 14891 ft 359 kts 286°
2026-04-25 09:38 17.43191 77.62128 15370 ft 359 kts 286°
2026-04-25 09:38 17.43869 77.59604 15845 ft 359 kts 284°
2026-04-25 09:39 17.44349 77.57046 16328 ft 358 kts 278°
2026-04-25 09:39 17.44681 77.54462 16827 ft 356 kts 277°
2026-04-25 09:39 17.44968 77.51890 17322 ft 355 kts 276°
2026-04-25 09:40 17.45547 77.46753 17895 ft 361 kts 277°
2026-04-25 09:40 17.45858 77.44138 17905 ft 361 kts 277°
2026-04-25 09:40 17.46173 77.41563 17913 ft 360 kts 277°
2026-04-25 09:40 17.46503 77.38918 17917 ft 361 kts 277°
2026-04-25 09:41 17.46832 77.36312 17924 ft 361 kts 277°
2026-04-25 09:41 17.47163 77.33697 17926 ft 361 kts 277°
2026-04-25 09:41 17.47487 77.31146 18417 ft 355 kts 277°
2026-04-25 09:41 17.47815 77.28556 18863 ft 361 kts 277°
2026-04-25 09:42 17.48148 77.25931 19320 ft 366 kts 276°
2026-04-25 09:42 17.48486 77.23264 19784 ft 370 kts 276°
2026-04-25 09:42 17.48825 77.20584 20252 ft 372 kts 276°
2026-04-25 09:42 17.49165 77.17892 20723 ft 373 kts 276°
2026-04-25 09:43 17.49507 77.15190 21208 ft 374 kts 275°
2026-04-25 09:43 17.49844 77.12516 21692 ft 375 kts 275°
2026-04-25 09:43 17.50187 77.09796 22195 ft 375 kts 275°
2026-04-25 09:43 17.50528 77.07086 22699 ft 376 kts 274°
2026-04-25 09:44 17.50871 77.04356 23221 ft 378 kts 274°
2026-04-25 09:44 17.51214 77.01625 23699 ft 379 kts 274°
2026-04-25 09:44 17.51555 76.98909 24133 ft 381 kts 274°
2026-04-25 09:44 17.51900 76.96155 24575 ft 382 kts 274°
2026-04-25 09:45 17.52246 76.93392 25030 ft 383 kts 274°
2026-04-25 09:45 17.52593 76.90620 25485 ft 384 kts 274°
2026-04-25 09:45 17.52939 76.87846 25951 ft 384 kts 273°
2026-04-25 09:45 17.53286 76.85068 26427 ft 384 kts 273°
2026-04-25 09:46 17.53632 76.82294 26908 ft 384 kts 273°
2026-04-25 09:46 17.53977 76.79518 27399 ft 383 kts 273°
2026-04-25 09:46 17.54322 76.76748 27891 ft 382 kts 272°
2026-04-25 09:46 17.54664 76.73992 28397 ft 381 kts 272°
2026-04-25 09:47 17.55038 76.71243 28904 ft 382 kts 278°
2026-04-25 09:47 17.56014 76.68658 29406 ft 393 kts 295°
2026-04-25 09:47 17.57700 76.66370 29946 ft 402 kts 309°
2026-04-25 09:47 17.59991 76.64616 30405 ft 413 kts 323°
2026-04-25 09:48 17.62527 76.63192 30875 ft 413 kts 326°
2026-04-25 09:48 17.65092 76.61840 31335 ft 411 kts 326°
2026-04-25 09:48 17.67647 76.60510 31803 ft 408 kts 326°
2026-04-25 09:48 17.70184 76.59177 32278 ft 405 kts 325°
2026-04-25 09:49 17.72684 76.57845 32755 ft 401 kts 324°
2026-04-25 09:49 17.75154 76.56515 33248 ft 397 kts 324°
2026-04-25 09:49 17.77568 76.55207 33733 ft 392 kts 324°
2026-04-25 09:49 17.79998 76.53881 33919 ft 398 kts 324°
2026-04-25 09:50 17.85029 76.51121 33935 ft 415 kts 324°
2026-04-25 09:50 17.90235 76.48279 33926 ft 424 kts 324°
2026-04-25 09:51 17.95230 76.45290 33914 ft 402 kts 312°
2026-04-25 09:51 17.97217 76.43297 33936 ft 390 kts 302°
2026-04-25 09:51 17.98838 76.41033 33931 ft 386 kts 293°
2026-04-25 09:52 18.01652 76.36087 33936 ft 402 kts 292°
2026-04-25 09:52 18.04573 76.30923 33941 ft 419 kts 293°
2026-04-25 09:53 18.07623 76.25578 33941 ft 434 kts 293°
2026-04-25 09:53 18.10794 76.20051 33935 ft 446 kts 294°
2026-04-25 09:54 18.14002 76.14473 33923 ft 449 kts 294°
2026-04-25 09:54 18.17216 76.08889 33914 ft 440 kts 293°
2026-04-25 09:55 18.20350 76.03427 33925 ft 438 kts 293°
2026-04-25 09:55 18.23503 75.97910 33928 ft 439 kts 293°
2026-04-25 09:56 18.26639 75.92420 33929 ft 440 kts 293°
2026-04-25 09:56 18.29797 75.86890 33926 ft 441 kts 293°
2026-04-25 09:57 18.32954 75.81360 33923 ft 441 kts 293°
2026-04-25 09:57 18.36114 75.75819 33925 ft 440 kts 293°
2026-04-25 09:58 18.39262 75.70294 33923 ft 440 kts 293°
2026-04-25 09:58 18.42386 75.64808 33909 ft 439 kts 293°
2026-04-25 09:59 18.45522 75.59294 33918 ft 437 kts 293°
2026-04-25 09:59 18.48646 75.53797 33911 ft 436 kts 293°
2026-04-25 10:00 18.51759 75.48316 33912 ft 435 kts 292°
2026-04-25 10:00 18.54379 75.42680 33918 ft 422 kts 283°
2026-04-25 10:01 18.56361 75.36904 33909 ft 421 kts 282°
2026-04-25 10:01 18.58346 75.31084 33903 ft 421 kts 282°
2026-04-25 10:02 18.60354 75.25279 33904 ft 421 kts 283°
2026-04-25 10:02 18.62377 75.19478 33900 ft 421 kts 283°
2026-04-25 10:03 18.64392 75.13709 33893 ft 422 kts 283°
2026-04-25 10:03 18.66415 75.07916 33884 ft 414 kts 283°
2026-04-25 10:04 18.67400 75.05113 33878 ft 399 kts 282°
2026-04-25 10:04 18.68359 75.02377 33406 ft 396 kts 282°
2026-04-25 10:04 18.69294 74.99691 32931 ft 392 kts 282°
2026-04-25 10:04 18.70233 74.96982 32304 ft 394 kts 282°
2026-04-25 10:05 18.71173 74.94265 31703 ft 395 kts 283°
2026-04-25 10:05 18.72119 74.91533 31124 ft 396 kts 283°
2026-04-25 10:05 18.73066 74.88799 30547 ft 397 kts 283°
2026-04-25 10:05 18.74018 74.86053 29981 ft 398 kts 283°
2026-04-25 10:06 18.74967 74.83315 29311 ft 398 kts 284°
2026-04-25 10:06 18.75921 74.80566 28660 ft 397 kts 284°
2026-04-25 10:06 18.76859 74.77860 28028 ft 398 kts 285°
2026-04-25 10:06 18.77812 74.75111 27409 ft 398 kts 285°
2026-04-25 10:07 18.78763 74.72364 26799 ft 398 kts 285°
2026-04-25 10:07 18.79715 74.69613 26193 ft 399 kts 286°
2026-04-25 10:07 18.80668 74.66859 25607 ft 399 kts 287°
2026-04-25 10:07 18.81621 74.64103 25030 ft 400 kts 287°
2026-04-25 10:08 18.82578 74.61333 24465 ft 400 kts 288°
2026-04-25 10:08 18.83534 74.58564 23913 ft 401 kts 288°
2026-04-25 10:08 18.84491 74.55794 23350 ft 402 kts 289°
2026-04-25 10:08 18.85448 74.53022 22764 ft 401 kts 289°
2026-04-25 10:09 18.86385 74.50306 22259 ft 397 kts 289°
2026-04-25 10:09 18.87330 74.47566 21758 ft 395 kts 289°
2026-04-25 10:09 18.88268 74.44846 21250 ft 392 kts 289°
2026-04-25 10:09 18.89197 74.42147 20774 ft 390 kts 289°
2026-04-25 10:10 18.90121 74.39461 20289 ft 387 kts 289°
2026-04-25 10:10 18.91040 74.36789 19823 ft 385 kts 289°
2026-04-25 10:10 18.91951 74.34138 19357 ft 383 kts 289°
2026-04-25 10:10 18.92857 74.31498 18897 ft 381 kts 289°
2026-04-25 10:11 18.93749 74.28900 18454 ft 380 kts 290°
2026-04-25 10:11 18.94647 74.26285 17980 ft 378 kts 290°
2026-04-25 10:11 18.95542 74.23674 17465 ft 376 kts 290°
2026-04-25 10:11 18.96430 74.21086 16967 ft 374 kts 290°
2026-04-25 10:12 18.97316 74.18500 16467 ft 373 kts 290°
2026-04-25 10:12 18.98201 74.15917 15984 ft 371 kts 290°
2026-04-25 10:12 18.99949 74.10807 15058 ft 367 kts 290°
2026-04-25 10:13 19.00794 74.08337 14928 ft 355 kts 290°
2026-04-25 10:13 19.01627 74.05898 14884 ft 342 kts 290°
2026-04-25 10:13 19.02407 74.03614 14869 ft 328 kts 290°
2026-04-25 10:13 19.03176 74.01363 14874 ft 324 kts 290°
2026-04-25 10:14 19.03943 73.99116 14885 ft 324 kts 290°
2026-04-25 10:14 19.04451 73.97627 14890 ft 324 kts 290°
2026-04-25 10:14 19.05220 73.95375 14888 ft 325 kts 290°
2026-04-25 10:14 19.06248 73.92360 14458 ft 334 kts 290°
2026-04-25 10:15 19.06785 73.90785 14159 ft 338 kts 290°
2026-04-25 10:15 19.07386 73.88405 13710 ft 341 kts 278°
2026-04-25 10:15 19.07650 73.85900 13211 ft 343 kts 276°
2026-04-25 10:15 19.07850 73.83384 12716 ft 344 kts 275°
2026-04-25 10:16 19.08038 73.80854 12221 ft 345 kts 275°
2026-04-25 10:16 19.08280 73.77494 11579 ft 345 kts 275°
2026-04-25 10:16 19.08400 73.75795 11249 ft 342 kts 275°
2026-04-25 10:16 19.08575 73.73302 10776 ft 338 kts 275°
2026-04-25 10:17 19.08745 73.70863 10317 ft 335 kts 275°
2026-04-25 10:17 19.08917 73.68418 9765 ft 334 kts 275°
2026-04-25 10:17 19.09088 73.66013 9135 ft 335 kts 275°
2026-04-25 10:17 19.09263 73.63557 8498 ft 336 kts 275°
2026-04-25 10:18 19.09436 73.61102 8112 ft 329 kts 275°
2026-04-25 10:18 19.09602 73.58741 7957 ft 315 kts 275°
2026-04-25 10:18 19.09756 73.56469 7859 ft 303 kts 275°
2026-04-25 10:18 19.09914 73.54267 7836 ft 300 kts 275°
2026-04-25 10:19 19.10061 73.52062 7818 ft 300 kts 275°
2026-04-25 10:19 19.10207 73.49856 7833 ft 300 kts 275°
2026-04-25 10:19 19.10348 73.47691 7811 ft 297 kts 275°
2026-04-25 10:19 19.10493 73.45510 7813 ft 295 kts 275°
2026-04-25 10:20 19.10640 73.43351 7810 ft 295 kts 275°
2026-04-25 10:20 19.10789 73.41194 7804 ft 293 kts 275°
2026-04-25 10:20 19.10940 73.39021 7632 ft 303 kts 275°
2026-04-25 10:20 19.11100 73.36749 7147 ft 314 kts 275°
2026-04-25 10:21 19.11259 73.34437 6679 ft 314 kts 275°
2026-04-25 10:21 19.11415 73.32152 6212 ft 308 kts 275°
2026-04-25 10:21 19.11569 73.29904 5728 ft 304 kts 275°
2026-04-25 10:21 19.11672 73.27713 5249 ft 301 kts 268°
2026-04-25 10:22 19.11365 73.25529 4787 ft 298 kts 260°
2026-04-25 10:22 19.10971 73.23374 4311 ft 297 kts 260°
2026-04-25 10:22 19.10566 73.21259 4072 ft 284 kts 260°
2026-04-25 10:22 19.10171 73.19277 4066 ft 266 kts 260°
2026-04-25 10:23 19.09803 73.17448 4013 ft 247 kts 260°
2026-04-25 10:23 19.09458 73.15739 4017 ft 222 kts 261°
2026-04-25 10:23 19.09273 73.14249 3990 ft 214 kts 270°
2026-04-25 10:23 19.09241 73.12712 4034 ft 205 kts 272°
2026-04-25 10:24 19.09235 73.11170 4010 ft 212 kts 272°
2026-04-25 10:24 19.09208 73.09598 3793 ft 212 kts 272°
2026-04-25 10:24 19.09181 73.08076 3585 ft 204 kts 272°
2026-04-25 10:24 19.09157 73.06591 3325 ft 200 kts 273°
2026-04-25 10:25 19.09135 73.05142 3066 ft 194 kts 272°
2026-04-25 10:25 19.09118 73.03756 2870 ft 190 kts 273°
2026-04-25 10:25 19.09098 73.02344 2591 ft 194 kts 273°
2026-04-25 10:25 19.09075 73.00947 2373 ft 183 kts 273°
2026-04-25 10:26 19.09053 72.99666 2168 ft 165 kts 274°
2026-04-25 10:26 19.09036 72.98508 1940 ft 149 kts 274°
2026-04-25 10:26 19.09022 72.97457 1760 ft 139 kts 274°
2026-04-25 10:26 19.09008 72.96429 1617 ft 139 kts 275°
2026-04-25 10:27 19.08992 72.95414 1445 ft 142 kts 275°
2026-04-25 10:27 19.08978 72.94374 1252 ft 140 kts 274°
2026-04-25 10:27 19.08964 72.93351 1078 ft 139 kts 274°
2026-04-25 10:27 19.08949 72.92337 906 ft 134 kts 274°
2026-04-25 10:28 19.08936 72.91352 737 ft 134 kts 272°
2026-04-25 10:28 19.08922 72.90362 601 ft 136 kts 271°
2026-04-25 10:28 19.08903 72.89363 473 ft 133 kts 266°
2026-04-25 10:28 19.08879 72.88380 217 ft 138 kts 270°
2026-04-25 10:29 19.08876 72.87372 48 ft 129 kts 271°
2026-04-25 10:29 19.08873 72.86563 24 ft 81 kts 270°
2026-04-25 10:29 19.08862 72.86084 22 ft 45 kts 273°
2026-04-25 10:29 19.08929 72.85882 24 ft 20 kts 299°
2026-04-25 10:30 19.08994 72.85766 25 ft 16 kts 302°
2026-04-25 10:30 19.09027 72.85658 24 ft 16 kts 264°
2026-04-25 10:30 19.09044 72.85605 26 ft 6 kts 325°
2026-04-25 10:30 19.09082 72.85581 24 ft 6 kts 307°
2026-04-25 10:31 19.09091 72.85536 24 ft 6 kts 269°
2026-04-25 10:31 19.09091 72.85489 24 ft 6 kts 269°
2026-04-25 10:31 19.09091 72.85443 24 ft 6 kts 269°
2026-04-25 10:31 19.09097 72.85412 24 ft 2 kts 317°
2026-04-25 10:32 19.09115 72.85410 26 ft 3 kts
2026-04-25 10:32 19.09135 72.85411 24 ft 3 kts 359°
2026-04-25 10:32 19.09156 72.85411 25 ft 3 kts
2026-04-25 10:32 19.09157 72.85411 26 ft 0 kts